NKS1023 KLAS-KLAX

Flight info

Callsign NKS1023
Flight time 0h 42m
Altitude 26000
Route RADYR2 BLAQQ SHTNR ANJLL4
Aircraft A320/M-SDE3FGHIRWY/LB1

Departure

Time 2026-05-04 16:18
Airport Harry Reid International Airport (KLAS)

Arrival

Time 2026-05-04 17:00
Airport Los Angeles International Airport (KLAX)
Time Latitude Longitude Altitude Speed Heading
2026-05-04 15:51 36.08581 -115.15404 2116 ft 0 kts 155°
2026-05-04 16:03 36.08601 -115.15415 2117 ft 4 kts 155°
2026-05-04 16:03 36.08625 -115.15428 2115 ft 4 kts 156°
2026-05-04 16:03 36.08650 -115.15441 2115 ft 4 kts 157°
2026-05-04 16:04 36.08675 -115.15454 2114 ft 4 kts 159°
2026-05-04 16:04 36.08726 -115.15475 2112 ft 4 kts 170°
2026-05-04 16:04 36.08751 -115.15476 2113 ft 2 kts 197°
2026-05-04 16:05 36.08773 -115.15463 2114 ft 4 kts 229°
2026-05-04 16:05 36.08785 -115.15435 2113 ft 4 kts 261°
2026-05-04 16:05 36.08786 -115.15419 2113 ft 0 kts 269°
2026-05-04 16:07 36.08786 -115.15421 2113 ft 1 kts 269°
2026-05-04 16:07 36.08883 -115.15505 2110 ft 12 kts
2026-05-04 16:08 36.08980 -115.15503 2105 ft 12 kts
2026-05-04 16:08 36.09011 -115.15503 2105 ft 0 kts 359°
2026-05-04 16:09 36.09034 -115.15503 2104 ft 0 kts
2026-05-04 16:09 36.09067 -115.15502 2104 ft 4 kts
2026-05-04 16:10 36.09163 -115.15502 2103 ft 10 kts
2026-05-04 16:11 36.09441 -115.15371 2098 ft 15 kts 25°
2026-05-04 16:11 36.09542 -115.15313 2092 ft 15 kts 25°
2026-05-04 16:12 36.09767 -115.15200 2083 ft 3 kts 347°
2026-05-04 16:12 36.09768 -115.15200 2083 ft 0 kts 346°
2026-05-04 16:13 36.09806 -115.15238 2082 ft 5 kts 294°
2026-05-04 16:14 36.09807 -115.15241 2082 ft 1 kts 294°
2026-05-04 16:14 36.09809 -115.15245 2082 ft 0 kts 294°
2026-05-04 16:15 36.09825 -115.15378 2086 ft 9 kts 206°
2026-05-04 16:16 36.09800 -115.15391 2087 ft 0 kts 204°
2026-05-04 16:16 36.09636 -115.15483 2090 ft 59 kts 204°
2026-05-04 16:17 36.08237 -115.16288 2182 ft 150 kts 204°
2026-05-04 16:18 36.05401 -115.17951 3988 ft 154 kts 206°
2026-05-04 16:18 36.04372 -115.18563 4307 ft 175 kts 204°
2026-05-04 16:19 36.00408 -115.20889 5299 ft 248 kts 202°
2026-05-04 16:19 35.97064 -115.22484 6855 ft 263 kts 199°
2026-05-04 16:20 35.91818 -115.24818 9511 ft 271 kts 199°
2026-05-04 16:20 35.88148 -115.26471 10544 ft 300 kts 200°
2026-05-04 16:21 35.81739 -115.29375 11697 ft 344 kts 201°
2026-05-04 16:22 35.77201 -115.31430 13084 ft 351 kts 201°
2026-05-04 16:22 35.70240 -115.34577 15006 ft 359 kts 202°
2026-05-04 16:23 35.63189 -115.37749 16864 ft 364 kts 202°
2026-05-04 16:24 35.52795 -115.38221 19218 ft 384 kts 183°
2026-05-04 16:25 35.47423 -115.37830 20315 ft 387 kts 185°
2026-05-04 16:26 35.37631 -115.41730 22375 ft 372 kts 213°
2026-05-04 16:26 35.30720 -115.46173 23813 ft 376 kts 213°
2026-05-04 16:27 35.26110 -115.49107 24634 ft 376 kts 213°
2026-05-04 16:28 35.19145 -115.53536 25927 ft 376 kts 213°
2026-05-04 16:28 35.12288 -115.58245 26063 ft 376 kts 222°
2026-05-04 16:29 35.05025 -115.67311 26086 ft 373 kts 228°
2026-05-04 16:30 34.99657 -115.74167 26087 ft 372 kts 228°
2026-05-04 16:31 34.96078 -115.78720 25976 ft 371 kts 228°
2026-05-04 16:31 34.90741 -115.85505 25954 ft 372 kts 228°
2026-05-04 16:32 34.85363 -115.92337 25945 ft 373 kts 228°
2026-05-04 16:33 34.81773 -115.96896 25956 ft 373 kts 228°
2026-05-04 16:33 34.78208 -116.01405 25938 ft 372 kts 227°
2026-05-04 16:34 34.74568 -116.06013 25947 ft 387 kts 228°
2026-05-04 16:34 34.72685 -116.08412 25948 ft 396 kts 228°
2026-05-04 16:35 34.66941 -116.15751 25943 ft 400 kts 228°
2026-05-04 16:35 34.61199 -116.23040 25943 ft 400 kts 227°
2026-05-04 16:36 34.59269 -116.25484 25940 ft 401 kts 227°
2026-05-04 16:36 34.55412 -116.30361 25944 ft 400 kts 228°
2026-05-04 16:37 34.51587 -116.35202 25932 ft 399 kts 227°
2026-05-04 16:37 34.49662 -116.37629 25929 ft 399 kts 227°
2026-05-04 16:37 34.45819 -116.42479 25900 ft 399 kts 227°
2026-05-04 16:38 34.42055 -116.47401 25903 ft 398 kts 233°
2026-05-04 16:39 34.38149 -116.56287 25908 ft 399 kts 241°
2026-05-04 16:39 34.35687 -116.62265 25908 ft 399 kts 241°
2026-05-04 16:40 34.33206 -116.68279 25913 ft 400 kts 241°
2026-05-04 16:40 34.30765 -116.74322 25915 ft 400 kts 242°
2026-05-04 16:41 34.28338 -116.80381 25930 ft 400 kts 242°
2026-05-04 16:41 34.24699 -116.89416 25952 ft 400 kts 242°
2026-05-04 16:42 34.21093 -116.98468 25931 ft 387 kts 245°
2026-05-04 16:43 34.19459 -117.04390 25574 ft 355 kts 248°
2026-05-04 16:43 34.18003 -117.09851 25070 ft 332 kts 248°
2026-05-04 16:43 34.17290 -117.12491 24636 ft 329 kts 248°
2026-05-04 16:44 34.14447 -117.22830 22662 ft 322 kts 248°
2026-05-04 16:45 34.13036 -117.27934 21530 ft 320 kts 249°
2026-05-04 16:46 34.10969 -117.35428 20214 ft 307 kts 249°
2026-05-04 16:46 34.09662 -117.40311 19206 ft 305 kts 251°
2026-05-04 16:47 34.08447 -117.45215 18186 ft 305 kts 251°
2026-05-04 16:47 34.07241 -117.50110 17144 ft 304 kts 252°
2026-05-04 16:48 34.05405 -117.57361 15598 ft 302 kts 251°
2026-05-04 16:48 34.04786 -117.59763 14909 ft 299 kts 251°
2026-05-04 16:49 34.03555 -117.64540 13215 ft 298 kts 251°
2026-05-04 16:49 34.02338 -117.69318 11499 ft 299 kts 254°
2026-05-04 16:50 34.01819 -117.74100 10544 ft 281 kts 262°
2026-05-04 16:50 34.01360 -117.78732 9564 ft 278 kts 262°
2026-05-04 16:51 34.00896 -117.83343 8865 ft 276 kts 262°
2026-05-04 16:51 34.00669 -117.85633 8523 ft 274 kts 262°
2026-05-04 16:51 34.00220 -117.90173 7841 ft 272 kts 263°
2026-05-04 16:52 33.99776 -117.94669 7168 ft 275 kts 262°
2026-05-04 16:52 33.99549 -117.96995 6820 ft 285 kts 263°
2026-05-04 16:53 33.99078 -118.01791 6069 ft 287 kts 263°
2026-05-04 16:53 33.98366 -118.08865 5012 ft 279 kts 263°
2026-05-04 16:54 33.98137 -118.11169 4751 ft 273 kts 263°
2026-05-04 16:55 33.97254 -118.19993 3462 ft 264 kts 263°
2026-05-04 16:55 33.96832 -118.24195 2787 ft 232 kts 262°
2026-05-04 16:56 33.96466 -118.27831 2188 ft 205 kts 261°
2026-05-04 16:56 33.96031 -118.32136 1485 ft 142 kts 261°
2026-05-04 16:57 33.95913 -118.33294 1297 ft 136 kts 261°
2026-05-04 16:57 33.95687 -118.35513 939 ft 130 kts 261°
2026-05-04 16:58 33.95355 -118.38769 408 ft 132 kts 261°
2026-05-04 16:58 33.95246 -118.39846 235 ft 130 kts 262°
2026-05-04 16:59 33.95059 -118.41674 94 ft 76 kts 263°
2026-05-04 17:00 33.94733 -118.42277 97 ft 11 kts 170°
2026-05-04 17:00 33.94701 -118.42055 96 ft 12 kts 82°
2026-05-04 17:01 33.94723 -118.41826 93 ft 13 kts 83°
2026-05-04 17:01 33.94737 -118.41681 93 ft 11 kts 83°
2026-05-04 17:02 33.94743 -118.41624 93 ft 4 kts 83°
2026-05-04 17:02 33.94749 -118.41561 94 ft 0 kts 82°
2026-05-04 17:06 33.94751 -118.41544 95 ft 3 kts 82°
2026-05-04 17:07 33.94762 -118.41448 95 ft 0 kts 82°
2026-05-04 17:08 33.94769 -118.41411 94 ft 5 kts 75°
2026-05-04 17:08 33.94781 -118.41358 94 ft 8 kts 75°
2026-05-04 17:09 33.94792 -118.41283 95 ft 10 kts 83°
2026-05-04 17:09 33.94802 -118.41186 96 ft 13 kts 82°
2026-05-04 17:09 33.94814 -118.41073 95 ft 15 kts 82°
2026-05-04 17:10 33.94829 -118.40926 96 ft 0 kts 83°
2026-05-04 17:10 33.94807 -118.40893 95 ft 6 kts 150°
2026-05-04 17:11 33.94756 -118.40869 95 ft 10 kts 181°
2026-05-04 17:11 33.94694 -118.40829 93 ft 6 kts 136°
2026-05-04 17:11 33.94686 -118.40820 95 ft 0 kts 138°